Date String (YYYY-MM-DD hh:mm:ss) UTC,Instrument flags,absolute air pressure of the measurement (hPa),sample flow rate (lpm),inlet stack bypass flow (lpm),air temperature of the measurement (°C),ambient temperature measured by the external sensor (°C),aerosol sample conditioner tube jacket temperature (°C),OPC LED temperature (°C),internal box temperature (°C),relative humidity of the measurement (%),span deviation,mass concentration of particles derived from Lorenz-Mie calculation of OPC scattering (μg/m³),mass concentration of particles derived from Lorenz-Mie calculation of OPC scattering (μg/m³),mass concentration of particles derived from Lorenz-Mie calculation of OPC scattering (μg/m³)
DateTimeUTC,F1_M11,P_M11,Q1_M11,Q2_M11,T1_M11,T2_M11,T3_M11,T4_M11,T5_M11,U1_M11,ZSPAN_M11,X0_M11,X2_M11,X1_M11
2024-01-07 09:00:00,SystemResetWarning,0817.8,5.00,000.00,018.6,017.7,000.0,027.2,020.0,7.5,0000.0,0003.74,0002.01,0001.60
2024-01-07 09:01:00,SystemResetWarning,0817.8,5.00,000.00,018.6,017.7,000.0,027.2,020.0,7.5,0000.0,0003.79,0002.05,0001.63
2024-01-07 09:02:00,SystemResetWarning,0817.8,4.98,000.00,018.6,017.7,000.0,027.2,020.0,7.5,0000.0,0003.75,0002.05,0001.64
2024-01-07 09:03:00,SystemResetWarning,0817.8,5.00,000.00,018.6,017.7,000.0,027.2,020.0,7.5,0000.0,0003.67,0002.03,0001.66
2024-01-07 09:04:00,SystemResetWarning,0817.7,5.00,000.00,018.7,017.6,000.0,027.2,020.0,7.5,0000.0,0003.65,0002.02,0001.66
2024-01-07 09:05:00,SystemResetWarning,0817.7,5.00,000.00,018.6,017.6,000.0,027.2,020.0,7.5,0000.0,0003.64,0002.01,0001.66
2024-01-07 09:06:00,SystemResetWarning,0817.7,4.99,000.00,018.6,017.6,000.0,027.2,020.0,7.5,0000.0,0002.89,0002.00,0001.63
2024-01-07 09:07:00,SystemResetWarning,0817.7,5.00,000.00,018.6,017.6,000.0,027.2,020.0,7.5,0000.0,0002.78,0001.95,0001.59
2024-01-07 09:08:00,SystemResetWarning,0817.6,5.01,000.00,018.6,017.6,000.0,027.2,020.0,7.5,0000.0,0002.85,0001.94,0001.55
2024-01-07 09:09:00,SystemResetWarning,0817.7,5.01,000.00,018.6,017.6,000.0,027.2,020.0,7.5,0000.0,0002.84,0001.91,0001.50
2024-01-07 09:10:00,SystemResetWarning,0817.7,5.00,000.00,018.6,017.6,000.0,027.2,020.0,7.5,0000.0,0002.67,0001.84,0001.47
2024-01-07 09:11:00,SystemResetWarning,0817.7,5.00,000.00,018.6,017.5,000.0,027.2,020.0,7.5,0000.0,0002.59,0001.79,0001.43
2024-01-07 09:12:00,SystemResetWarning,0817.6,4.99,000.00,018.6,017.5,000.0,027.2,020.0,7.5,0000.0,0002.52,0001.74,0001.39
2024-01-07 09:13:00,SystemResetWarning,0817.6,4.99,000.00,018.6,017.5,000.0,027.1,020.1,7.5,0000.0,0002.37,0001.66,0001.33
2024-01-07 09:14:00,SystemResetWarning,0817.6,5.01,000.00,018.7,017.8,000.0,027.1,020.3,7.4,0000.0,0002.33,0001.61,0001.28
2024-01-07 09:15:00,SystemResetWarning,0817.6,5.01,000.00,018.8,018.5,000.0,027.1,020.7,7.4,0000.0,0002.25,0001.56,0001.23
2024-01-07 09:16:00,SystemResetWarning,0817.6,4.99,000.00,018.9,018.7,000.0,027.1,020.5,7.3,0000.0,0002.32,0001.55,0001.19
2024-01-07 09:17:00,SystemResetWarning,0817.6,4.99,000.00,018.9,018.6,000.0,027.1,020.3,7.3,0000.0,0002.24,0001.51,0001.16
2024-01-07 09:18:00,SystemResetWarning,0817.6,4.99,000.00,018.9,018.5,000.0,027.1,020.2,7.3,0000.0,0002.15,0001.46,0001.12
2024-01-07 09:19:00,SystemResetWarning,0817.6,5.01,000.00,018.8,018.4,000.0,027.1,020.1,7.3,0000.0,0002.03,0001.38,0001.09
2024-01-07 09:20:00,SystemResetWarning,0817.6,5.01,000.00,018.8,018.3,000.0,027.1,020.0,7.3,0000.0,0003.55,0001.34,0001.07
2024-01-07 09:21:00,SystemResetWarning,0817.6,5.00,000.00,018.8,018.3,000.0,027.1,020.0,7.2,0000.0,0003.58,0001.31,0001.03
2024-01-07 09:22:00,SystemResetWarning,0817.6,4.99,000.00,018.8,018.2,000.0,027.1,020.0,7.2,0000.0,0003.58,0001.29,0001.00
2024-01-07 09:23:00,SystemResetWarning,0817.6,5.01,000.00,018.8,018.1,000.0,027.1,020.0,7.2,0000.0,0003.61,0001.30,0000.98
2024-01-07 09:24:00,SystemResetWarning,0817.6,5.01,000.00,018.7,018.1,000.0,027.1,020.0,7.1,0000.0,0003.63,0001.30,0000.97
2024-01-07 09:25:00,SystemResetWarning,0817.5,5.00,000.00,018.7,018.0,000.0,027.1,020.0,7.1,0000.0,0003.72,0001.29,0000.96
2024-01-07 09:26:00,SystemResetWarning,0817.6,4.99,000.00,018.7,018.0,000.0,027.1,020.0,7.1,0000.0,0003.81,0001.30,0000.95
2024-01-07 09:27:00,SystemResetWarning,0817.6,5.00,000.00,018.7,017.9,000.0,027.2,020.0,7.1,0000.0,0003.83,0001.29,0000.93
2024-01-07 09:28:00,SystemResetWarning,0817.6,4.99,000.00,018.7,017.9,000.0,027.1,020.0,7.1,0000.0,0003.81,0001.27,0000.92
2024-01-07 09:29:00,SystemResetWarning,0817.6,5.00,000.00,018.7,017.8,000.0,027.1,020.0,7.1,0000.0,0003.81,0001.27,0000.93
2024-01-07 09:30:00,SystemResetWarning,0817.5,5.01,000.00,018.7,017.8,000.0,027.1,020.0,7.1,0000.0,0003.98,0001.29,0000.94
2024-01-07 09:31:00,SystemResetWarning,0817.5,5.00,000.00,018.7,017.8,000.0,027.1,020.0,7.1,0000.0,0002.70,0001.29,0000.95
2024-01-07 09:32:00,SystemResetWarning,0817.5,5.00,000.00,018.7,017.8,000.0,027.2,020.0,7.1,0000.0,0002.34,0001.30,0000.96
2024-01-07 09:33:00,SystemResetWarning,0817.5,5.00,000.00,018.7,017.8,000.0,027.2,020.0,7.1,0000.0,0002.33,0001.30,0000.96
2024-01-07 09:34:00,SystemResetWarning,0817.5,5.00,000.00,018.7,017.8,000.0,027.1,020.0,7.1,0000.0,0002.24,0001.25,0000.95
2024-01-07 09:35:00,SystemResetWarning,0817.5,5.00,000.00,018.7,017.7,000.0,027.2,020.0,7.1,0000.0,0002.23,0001.26,0000.95
2024-01-07 09:36:00,SystemResetWarning,0817.5,5.00,000.00,018.7,017.7,000.0,027.2,020.0,7.1,0000.0,0002.23,0001.30,0000.96
2024-01-07 09:37:00,SystemResetWarning,0817.5,5.00,000.00,018.7,017.7,000.0,027.2,020.0,7.2,0000.0,0002.20,0001.30,0000.96
2024-01-07 09:38:00,SystemResetWarning,0817.5,5.00,000.00,018.7,017.6,000.0,027.2,020.0,7.2,0000.0,0002.09,0001.29,0000.95
2024-01-07 09:39:00,SystemResetWarning,0817.5,5.00,000.00,018.7,017.6,000.0,027.2,020.0,7.2,0000.0,0002.02,0001.27,0000.95
2024-01-07 09:40:00,SystemResetWarning,0817.5,5.00,000.00,018.7,017.6,000.0,027.2,020.0,7.2,0000.0,0002.04,0001.27,0000.94
2024-01-07 09:41:00,SystemResetWarning,0817.5,5.00,000.00,018.7,017.5,000.0,027.2,020.0,7.2,0000.0,0001.86,0001.24,0000.93
2024-01-07 09:42:00,SystemResetWarning,0817.5,5.01,000.00,018.7,017.5,000.0,027.2,020.0,7.2,0000.0,0001.82,0001.23,0000.92
2024-01-07 09:43:00,SystemResetWarning,0817.5,5.00,000.00,018.7,017.5,000.0,027.2,020.0,7.2,0000.0,0001.83,0001.24,0000.92
2024-01-07 09:44:00,SystemResetWarning,0817.5,5.01,000.00,018.7,017.5,000.0,027.2,020.0,7.2,0000.0,0001.79,0001.23,0000.92
2024-01-07 09:45:00,SystemResetWarning,0817.5,5.00,000.00,018.7,017.5,000.0,027.2,020.0,7.2,0000.0,0001.78,0001.23,0000.93
2024-01-07 09:46:00,SystemResetWarning,0817.5,5.00,000.00,018.7,017.5,000.0,027.2,020.0,7.2,0000.0,0001.80,0001.22,0000.92
2024-01-07 09:47:00,SystemResetWarning,0817.4,5.00,000.00,018.7,017.5,000.0,027.2,020.0,7.3,0000.0,0001.79,0001.20,0000.92
2024-01-07 09:48:00,SystemResetWarning,0817.4,5.00,000.00,018.7,017.4,000.0,027.2,020.0,7.4,0000.0,0001.75,0001.19,0000.92
2024-01-07 09:49:00,SystemResetWarning,0817.4,4.99,000.00,018.7,017.4,000.0,027.2,020.0,7.4,0000.0,0001.80,0001.21,0000.93
2024-01-07 09:50:00,SystemResetWarning,0817.4,4.99,000.00,018.7,017.4,000.0,027.2,020.0,7.4,0000.0,0001.77,0001.20,0000.93
2024-01-07 09:51:00,SystemResetWarning,0817.4,5.00,000.00,018.7,017.4,000.0,027.2,020.0,7.4,0000.0,0001.83,0001.21,0000.92
2024-01-07 09:52:00,SystemResetWarning,0817.4,5.00,000.00,018.6,017.4,000.0,027.2,020.0,7.4,0000.0,0002.03,0001.23,0000.93
2024-01-07 09:53:00,SystemResetWarning,0817.4,5.01,000.00,018.6,017.3,000.0,027.2,020.0,7.4,0000.0,0002.26,0001.22,0000.93
2024-01-07 09:54:00,SystemResetWarning,0817.4,5.01,000.00,018.7,017.3,000.0,027.2,020.0,7.4,0000.0,0002.26,0001.22,0000.93
2024-01-07 09:55:00,SystemResetWarning,0817.3,5.00,000.00,018.7,017.4,000.0,027.2,020.2,7.4,0000.0,0002.26,0001.21,0000.91
2024-01-07 09:56:00,SystemResetWarning,0817.3,5.01,000.00,018.8,018.1,000.0,027.1,020.5,7.3,0000.0,0002.33,0001.23,0000.92
2024-01-07 09:57:00,SystemResetWarning,0817.3,5.00,000.00,018.9,018.7,000.0,027.2,020.7,7.3,0000.0,0002.28,0001.21,0000.92
2024-01-07 09:58:00,SystemResetWarning,0817.3,5.00,000.00,018.9,018.7,000.0,027.1,020.4,7.3,0000.0,0002.25,0001.22,0000.92
2024-01-07 09:59:00,SystemResetWarning,0817.2,5.00,000.00,018.9,018.6,000.0,027.1,020.2,7.3,0000.0,0002.29,0001.24,0000.91
